DW3701 Weather Reports


Display with metric or nautical units.
time (UTC)temp
F
wind
direction
speed
MPH
gust
MPH
rain 1hr
in
rain 24hr
in
rain mn
in
humidity
%
barometer
mb
20180717133217 72 344 0.0 0.0 0.03 0.46 0.33 88 1009.8
20180717131717 72 344 0.0 0.0 0.04 0.46 0.33 87 1009.7
20180717130214 72 344 0.0 0.0 0.17 0.46 0.33 87 1009.5
20180717124714 72 344 0.0 0.0 0.32 0.45 0.32 86 1009.7
20180717123210 72 343 0.0 2.0 0.30 0.43 0.30 85 1010.3
20180717121708 73 344 0.0 3.0 0.28 0.42 0.28 84 1010.4
20180717120206 74 296 8.0 19.0 0.14 0.27 0.14 82 1010.8
20180717114704 75 336 0.0 6.0 0.00 0.13 0.00 82 1009.8
20180717113200 75 11 0.0 0.0 0.00 0.13 0.00 83 1009.8
20180717111658 75 11 0.0 0.0 0.00 0.13 0.00 83 1009.8
20180717110153 75 11 0.0 1.0 0.00 0.13 0.00 83 1009.9
20180717104651 75 329 0.0 0.0 0.00 0.13 0.00 83 1010.0
20180717103151 75 329 0.0 0.0 0.00 0.13 0.00 82 1010.0
20180717101651 75 329 0.0 0.0 0.00 0.13 0.00 82 1010.0
20180717100151 75 329 0.0 0.0 0.00 0.13 0.00 82 1010.0
20180717094644 75 329 0.0 0.0 0.00 0.13 0.00 82 1010.1
20180717093143 75 329 0.0 0.0 0.00 0.13 0.00 82 1010.3
20180717091646 75 329 0.0 2.0 0.00 0.13 0.00 82 1010.4
20180717090145 75 338 0.0 0.0 0.00 0.13 0.00 81 1010.4
20180717084644 76 349 0.0 4.0 0.00 0.13 0.00 81 1010.5
20180717083140 76 165 0.0 0.0 0.00 0.13 0.00 81 1010.1
20180717081637 76 165 0.0 0.0 0.00 0.13 0.00 81 1010.2
20180717080139 76 133 0.0 0.0 0.00 0.13 0.00 81 1010.4
20180717074638 76 133 0.0 0.0 0.00 0.13 0.00 80 1010.3
20180717073137 76 134 0.0 0.0 0.00 0.13 0.00 80 1010.5
20180717071638 76 134 0.0 0.0 0.00 0.13 0.00 80 1010.4
20180717070132 76 120 0.0 0.0 0.00 0.13 0.00 79 1010.6
20180717064630 76 338 0.0 0.0 0.00 0.13 0.00 79 1011.0
20180717063128 76 355 0.0 1.0 0.00 0.13 0.00 80 1011.3
20180717061632 77 343 0.0 0.0 0.00 0.13 0.00 80 1011.3
20180717060127 77 343 0.0 0.0 0.00 0.13 0.00 80 1011.5
20180717054623 77 313 0.0 4.0 0.00 0.13 0.00 80 1011.6
20180717053126 78 308 1.0 8.0 0.00 0.13 0.00 79 1011.4
20180717051624 78 195 0.0 8.0 0.00 0.13 0.00 78 1011.3
20180717050122 78 188 1.0 8.0 0.00 0.13 0.00 78 1011.3
20180717044617 78 168 0.0 5.0 0.00 0.13 0.00 78 1011.5
20180717043117 78 184 0.0 3.0 0.00 0.13 0.00 78 1011.5
20180717041620 78 172 0.0 0.0 0.00 0.13 0.00 78 1011.6
20180717040113 79 349 0.0 0.0 0.00 0.13 0.00 78 1011.7
20180717034616 79 349 0.0 8.0 0.00 0.13 0.13 77 1011.7
20180717033118 79 163 0.0 6.0 0.00 0.13 0.13 76 1011.5
20180717031615 79 211 0.0 7.0 0.00 0.13 0.13 75 1011.4
20180717030111 79 191 0.0 8.0 0.02 0.13 0.13 75 1011.4
20180717024614 79 177 0.0 5.0 0.02 0.13 0.13 74 1011.1
20180717023110 80 183 0.0 9.0 0.02 0.13 0.13 73 1011.4
20180717021610 81 195 1.0 12.0 0.01 0.12 0.12 71 1011.6
20180717020109 81 195 1.0 8.0 0.00 0.11 0.11 70 1011.4
20180717014610 81 187 2.0 9.0 0.00 0.11 0.11 69 1011.8
20180717013109 81 197 0.0 5.0 0.00 0.11 0.11 69 1011.7
20180717011613 81 160 0.0 3.0 0.00 0.11 0.11 69 1011.7
20180717010109 81 165 0.0 4.0 0.00 0.11 0.11 70 1011.5
20180717004607 81 149 0.0 2.0 0.00 0.11 0.11 70 1011.4
20180717003106 81 137 0.0 0.0 0.00 0.11 0.11 70 1011.0
20180717001606 82 137 0.0 0.0 0.00 0.11 0.11 70 1010.8
20180717000107 83 137 0.0 3.0 0.00 0.11 0.11 68 1010.8
20180716234603 84 157 0.0 0.0 0.00 0.11 0.11 66 1011.0
20180716233102 84 157 0.0 0.0 0.00 0.11 0.11 65 1011.1
20180716231601 84 163 0.0 0.0 0.00 0.11 0.11 63 1011.3
20180716230059 84 163 0.0 0.0 0.00 0.11 0.11 63 1011.4
20180716224600 84 163 0.0 0.0 0.00 0.11 0.11 65 1011.6
20180716223058 83 188 0.0 1.0 0.00 0.11 0.11 66 1011.7
20180716221601 83 221 0.0 0.0 0.11 0.11 0.11 66 1011.7
20180716220100 82 203 4.0 14.0 0.11 0.11 0.11 69 1011.9
20180716214556 82 306 3.0 12.0 0.11 0.11 0.11 75 1012.4
20180716213055 82 166 0.0 13.0 0.11 0.11 0.11 69 1012.0
20180716211557 92 272 3.0 9.0 0.00 0.00 0.00 45 1011.7
20180716210053 92 145 0.0 3.0 0.00 0.00 0.00 44 1011.5
20180716204552 93 200 1.0 13.0 0.00 0.00 0.00 42 1011.6
20180716203052 93 214 0.0 10.0 0.00 0.00 0.00 43 1011.7
20180716201552 93 177 4.0 12.0 0.00 0.00 0.00 43 1011.7
20180716200051 93 206 3.0 14.0 0.00 0.00 0.00 43 1011.9
20180716194549 95 254 4.0 13.0 0.00 0.00 0.00 41 1012.0
20180716193048 95 202 4.0 10.0 0.00 0.00 0.00 40 1012.1
20180716191544 93 184 1.0 15.0 0.00 0.00 0.00 42 1012.5
20180716190043 94 209 6.0 12.0 0.00 0.00 0.00 41 1012.5
20180716184541 96 187 0.0 10.0 0.00 0.00 0.00 38 1012.6
20180716183038 93 34 1.0 6.0 0.00 0.00 0.00 39 1012.7
20180716181535 93 142 0.0 9.0 0.00 0.00 0.00 41 1013.1
20180716180035 94 140 1.0 6.0 0.00 0.00 0.00 39 1013.2
20180716174533 94 14 3.0 9.0 0.00 0.00 0.00 38 1013.3
20180716173032 94 290 0.0 8.0 0.00 0.00 0.00 39 1013.5
20180716171527 93 340 2.0 5.0 0.00 0.00 0.00 40 1013.7
20180716170026 91 5 0.0 9.0 0.00 0.00 0.00 43 1014.0
20180716164523 92 344 3.0 8.0 0.00 0.00 0.00 42 1014.2
20180716163022 91 32 0.0 10.0 0.00 0.00 0.00 45 1014.4
20180716161518 91 355 0.0 5.0 0.00 0.00 0.00 45 1014.7
20180716160014 89 258 0.0 6.0 0.00 0.00 0.00 47 1014.8
20180716154512 89 5 0.0 3.0 0.00 0.00 0.00 47 1014.9
20180716153007 88 36 0.0 3.0 0.00 0.00 0.00 49 1015.0
20180716151508 88 256 0.0 2.0 0.00 0.00 0.00 50 1015.1
20180716150003 87 355 0.0 4.0 0.00 0.00 0.00 51 1015.2
20180716144502 86 253 0.0 2.0 0.00 0.00 0.00 53 1015.3
20180716142957 85 258 0.0 2.0 0.00 0.00 0.00 55 1015.5
20180716141451 84 290 0.0 3.0 0.00 0.00 0.00 57 1015.7
20180716135947 83 314 0.0 2.0 0.00 0.00 0.00 59 1015.8
20180716134443 81 360 0.0 3.0 0.00 0.00 0.00 62 1015.8